SH53 KNSE-KNSE

Flight info

Callsign SH53
Flight time 1h 1m
Altitude 9500
Route PENSI PSMOA KNBJ MERTY
Aircraft TEX2/L-VD/C

Departure

Time 2026-04-27 20:37
Airport Whiting Field Naval Air Station - North (KNSE)

Arrival

Time 2026-04-27 21:39
Airport Whiting Field Naval Air Station - North (KNSE)
Time Latitude Longitude Altitude Speed Heading
2026-04-27 20:11 30.71703 -87.02395 192 ft 0 kts 272°
2026-04-27 20:29 30.71703 -87.02397 192 ft 2 kts 281°
2026-04-27 20:29 30.71742 -87.02404 192 ft 10 kts
2026-04-27 20:29 30.71829 -87.02401 192 ft 15 kts
2026-04-27 20:30 30.71908 -87.02401 192 ft 7 kts 318°
2026-04-27 20:30 30.71976 -87.02444 195 ft 12 kts
2026-04-27 20:30 30.72054 -87.02401 194 ft 10 kts 82°
2026-04-27 20:30 30.72052 -87.02344 192 ft 0 kts 53°
2026-04-27 20:33 30.72074 -87.02357 192 ft 10 kts 286°
2026-04-27 20:33 30.72046 -87.02466 192 ft 16 kts 246°
2026-04-27 20:33 30.72020 -87.02570 192 ft 15 kts 282°
2026-04-27 20:34 30.72070 -87.02675 192 ft 13 kts 303°
2026-04-27 20:34 30.72140 -87.02747 197 ft 13 kts 345°
2026-04-27 20:34 30.72246 -87.02748 192 ft 20 kts
2026-04-27 20:34 30.72405 -87.02741 192 ft 22 kts
2026-04-27 20:35 30.72569 -87.02733 192 ft 24 kts
2026-04-27 20:35 30.72698 -87.02729 192 ft 14 kts 359°
2026-04-27 20:35 30.72778 -87.02792 192 ft 18 kts 316°
2026-04-27 20:35 30.72856 -87.02875 192 ft 16 kts 317°
2026-04-27 20:36 30.72927 -87.02911 192 ft 7 kts 28°
2026-04-27 20:36 30.72979 -87.02853 192 ft 14 kts 44°
2026-04-27 20:36 30.72990 -87.02803 200 ft 0 kts 137°
2026-04-27 20:37 30.72964 -87.02775 192 ft 32 kts 138°
2026-04-27 20:37 30.72639 -87.02422 207 ft 91 kts 137°
2026-04-27 20:37 30.72136 -87.01726 405 ft 138 kts 103°
2026-04-27 20:37 30.72843 -87.00864 827 ft 184 kts
2026-04-27 20:38 30.74230 -87.00773 1177 ft 212 kts
2026-04-27 20:38 30.75747 -87.00615 1708 ft 225 kts
2026-04-27 20:38 30.77320 -87.00440 2434 ft 228 kts
2026-04-27 20:38 30.78680 -87.01300 3029 ft 237 kts 300°
2026-04-27 20:39 30.78931 -87.03175 3585 ft 240 kts 266°
2026-04-27 20:39 30.78891 -87.05106 4387 ft 237 kts 267°
2026-04-27 20:39 30.78823 -87.07096 4540 ft 250 kts 267°
2026-04-27 20:39 30.78740 -87.09099 4503 ft 254 kts 266°
2026-04-27 20:40 30.78345 -87.11103 4539 ft 263 kts 238°
2026-04-27 20:40 30.77324 -87.12894 5012 ft 263 kts 236°
2026-04-27 20:40 30.76332 -87.14663 5865 ft 254 kts 237°
2026-04-27 20:40 30.75367 -87.16332 6609 ft 251 kts 236°
2026-04-27 20:41 30.74347 -87.17996 7191 ft 255 kts 234°
2026-04-27 20:41 30.73308 -87.19690 7674 ft 260 kts 237°
2026-04-27 20:41 30.72342 -87.21472 8291 ft 261 kts 240°
2026-04-27 20:41 30.71361 -87.23247 8978 ft 261 kts 238°
2026-04-27 20:42 30.70329 -87.24968 9726 ft 259 kts 237°
2026-04-27 20:42 30.69265 -87.26729 10014 ft 278 kts 237°
2026-04-27 20:42 30.68087 -87.28565 10455 ft 282 kts 238°
2026-04-27 20:42 30.66894 -87.30484 10573 ft 301 kts 236°
2026-04-27 20:43 30.65648 -87.32514 10679 ft 316 kts 238°
2026-04-27 20:43 30.64342 -87.34649 10628 ft 332 kts 237°
2026-04-27 20:43 30.63002 -87.36909 10559 ft 346 kts 238°
2026-04-27 20:43 30.61625 -87.39239 10519 ft 355 kts 238°
2026-04-27 20:44 30.60223 -87.41619 10539 ft 360 kts 237°
2026-04-27 20:44 30.58813 -87.44052 10701 ft 348 kts 238°
2026-04-27 20:44 30.57294 -87.46026 12181 ft 325 kts 216°
2026-04-27 20:44 30.55112 -87.46702 12593 ft 334 kts 187°
2026-04-27 20:45 30.52735 -87.46966 12504 ft 352 kts 189°
2026-04-27 20:45 30.50273 -87.47401 12467 ft 362 kts 198°
2026-04-27 20:45 30.48017 -87.48698 12508 ft 365 kts 216°
2026-04-27 20:45 30.46046 -87.50398 12406 ft 335 kts 225°
2026-04-27 20:46 30.44476 -87.52174 12576 ft 301 kts 231°
2026-04-27 20:46 30.43052 -87.54011 12303 ft 323 kts 224°
2026-04-27 20:46 30.40962 -87.54982 12613 ft 340 kts 185°
2026-04-27 20:46 30.38512 -87.54723 12451 ft 342 kts 176°
2026-04-27 20:47 30.37836 -87.54509 17173 ft 83 kts
2026-04-27 20:47 30.38588 -87.54312 15238 ft 195 kts 356°
2026-04-27 20:47 30.40139 -87.54320 16327 ft 42 kts 351°
2026-04-27 20:47 30.39476 -87.54473 17204 ft 137 kts 199°
2026-04-27 20:48 30.37697 -87.54930 15249 ft 316 kts 197°
2026-04-27 20:48 30.35622 -87.55519 16241 ft 299 kts 198°
2026-04-27 20:48 30.33900 -87.56433 17719 ft 235 kts 236°
2026-04-27 20:48 30.33577 -87.57990 18777 ft 203 kts 298°
2026-04-27 20:49 30.34645 -87.58957 19451 ft 195 kts 345°
2026-04-27 20:49 30.35744 -87.58950 20103 ft 117 kts 355°
2026-04-27 20:49 30.36326 -87.58829 18452 ft 67 kts 347°
2026-04-27 20:49 30.37503 -87.59102 14994 ft 248 kts 348°
2026-04-27 20:50 30.39015 -87.59322 14824 ft 189 kts 351°
2026-04-27 20:50 30.40112 -87.59415 15031 ft 121 kts 351°
2026-04-27 20:50 30.40780 -87.59506 14444 ft 104 kts 330°
2026-04-27 20:50 30.41684 -87.60620 13655 ft 228 kts 255°
2026-04-27 20:51 30.40267 -87.61049 14572 ft 175 kts 178°
2026-04-27 20:51 30.39398 -87.60885 16299 ft 103 kts 175°
2026-04-27 20:51 30.38510 -87.60570 13817 ft 240 kts 166°
2026-04-27 20:51 30.36679 -87.59960 13581 ft 291 kts 164°
2026-04-27 20:52 30.34651 -87.59241 13577 ft 315 kts 163°
2026-04-27 20:52 30.32711 -87.58280 13998 ft 301 kts 155°
2026-04-27 20:52 30.31983 -87.58967 14334 ft 238 kts 350°
2026-04-27 20:52 30.33855 -87.59180 12870 ft 299 kts 352°
2026-04-27 20:53 30.33976 -87.59202 16706 ft 154 kts 174°
2026-04-27 20:53 30.32702 -87.59204 16394 ft 211 kts 187°
2026-04-27 20:53 30.31313 -87.59131 14648 ft 39 kts 30°
2026-04-27 20:53 30.32841 -87.58496 12842 ft 258 kts 11°
2026-04-27 20:54 30.36406 -87.57971 12787 ft 275 kts
2026-04-27 20:54 30.38368 -87.57715 12912 ft 293 kts
2026-04-27 20:54 30.39238 -87.56903 15603 ft 204 kts 136°
2026-04-27 20:55 30.39154 -87.55134 14168 ft 278 kts 77°
2026-04-27 20:55 30.39560 -87.52723 13057 ft 341 kts 76°
2026-04-27 20:55 30.39625 -87.51933 16560 ft 154 kts 261°
2026-04-27 20:55 30.39338 -87.53311 16465 ft 197 kts 265°
2026-04-27 20:56 30.39082 -87.55028 16325 ft 237 kts 266°
2026-04-27 20:56 30.38868 -87.56858 16563 ft 193 kts 269°
2026-04-27 20:56 30.38708 -87.58020 17430 ft 113 kts 268°
2026-04-27 20:56 30.38483 -87.58729 16613 ft 110 kts 257°
2026-04-27 20:57 30.37639 -87.59796 14316 ft 221 kts 228°
2026-04-27 20:57 30.36314 -87.60153 14114 ft 187 kts 176°
2026-04-27 20:57 30.35247 -87.60032 14009 ft 132 kts 179°
2026-04-27 20:57 30.34459 -87.59966 13870 ft 98 kts 175°
2026-04-27 20:58 30.33441 -87.59777 13285 ft 179 kts 173°
2026-04-27 20:58 30.32642 -87.58907 13345 ft 200 kts 91°
2026-04-27 20:58 30.32564 -87.57146 13317 ft 240 kts 88°
2026-04-27 20:58 30.32593 -87.55060 13178 ft 272 kts 86°
2026-04-27 20:59 30.32665 -87.52765 13096 ft 295 kts 80°
2026-04-27 20:59 30.33334 -87.50521 13251 ft 299 kts 58°
2026-04-27 20:59 30.34067 -87.48210 13232 ft 315 kts 78°
2026-04-27 20:59 30.34405 -87.45706 13171 ft 312 kts 64°
2026-04-27 21:00 30.35879 -87.43996 13055 ft 304 kts 18°
2026-04-27 21:00 30.37950 -87.43655 12940 ft 306 kts 20°
2026-04-27 21:00 30.39450 -87.41923 12973 ft 315 kts 60°
2026-04-27 21:00 30.39935 -87.39455 13025 ft 314 kts 74°
2026-04-27 21:01 30.41348 -87.38743 13297 ft 269 kts 296°
2026-04-27 21:01 30.41255 -87.40947 13095 ft 285 kts 263°
2026-04-27 21:01 30.40887 -87.43263 13062 ft 302 kts 262°
2026-04-27 21:01 30.40559 -87.45735 12822 ft 310 kts 265°
2026-04-27 21:02 30.40315 -87.47996 12808 ft 274 kts 265°
2026-04-27 21:02 30.39860 -87.49906 13590 ft 223 kts 258°
2026-04-27 21:02 30.39550 -87.51605 13207 ft 203 kts 263°
2026-04-27 21:02 30.39299 -87.53142 13806 ft 179 kts 264°
2026-04-27 21:03 30.39107 -87.54594 13663 ft 187 kts 268°
2026-04-27 21:03 30.38993 -87.56125 13577 ft 191 kts 270°
2026-04-27 21:03 30.38854 -87.57664 13472 ft 204 kts 242°
2026-04-27 21:03 30.37321 -87.57995 13315 ft 256 kts 181°
2026-04-27 21:04 30.35431 -87.57872 13355 ft 287 kts 176°
2026-04-27 21:04 30.33413 -87.57696 13447 ft 292 kts 178°
2026-04-27 21:04 30.31362 -87.57550 13447 ft 300 kts 169°
2026-04-27 21:04 30.30307 -87.55974 13707 ft 276 kts 51°
2026-04-27 21:05 30.31991 -87.55695 13824 ft 264 kts 353°
2026-04-27 21:05 30.33815 -87.55780 13434 ft 255 kts 359°
2026-04-27 21:05 30.35510 -87.55709 12753 ft 236 kts
2026-04-27 21:05 30.37121 -87.55635 12074 ft 219 kts
2026-04-27 21:06 30.38559 -87.55499 11752 ft 195 kts
2026-04-27 21:06 30.39846 -87.55379 11676 ft 181 kts
2026-04-27 21:06 30.41073 -87.55281 11661 ft 181 kts
2026-04-27 21:06 30.42394 -87.55206 11293 ft 192 kts 358°
2026-04-27 21:07 30.43795 -87.55241 10704 ft 214 kts 354°
2026-04-27 21:07 30.45314 -87.55292 10368 ft 219 kts
2026-04-27 21:07 30.46821 -87.55082 10154 ft 218 kts 11°
2026-04-27 21:07 30.48253 -87.55076 9766 ft 206 kts 329°
2026-04-27 21:08 30.49235 -87.56057 8962 ft 175 kts 294°
2026-04-27 21:08 30.49576 -87.57346 8079 ft 166 kts 281°
2026-04-27 21:08 30.49729 -87.58650 7277 ft 162 kts 273°
2026-04-27 21:08 30.49766 -87.60009 6285 ft 186 kts 266°
2026-04-27 21:09 30.49734 -87.61505 5716 ft 186 kts 270°
2026-04-27 21:09 30.49713 -87.62987 5057 ft 187 kts 264°
2026-04-27 21:09 30.49624 -87.64528 4337 ft 187 kts 267°
2026-04-27 21:09 30.49614 -87.66008 3731 ft 178 kts 265°
2026-04-27 21:10 30.49411 -87.67395 3040 ft 167 kts 233°
2026-04-27 21:10 30.48487 -87.68061 2890 ft 173 kts 173°
2026-04-27 21:10 30.47244 -87.67695 3046 ft 193 kts 160°
2026-04-27 21:10 30.45946 -87.67168 3144 ft 202 kts 157°
2026-04-27 21:11 30.44638 -87.66535 3160 ft 205 kts 154°
2026-04-27 21:11 30.43367 -87.65806 3124 ft 203 kts 153°
2026-04-27 21:11 30.42089 -87.65097 3079 ft 203 kts 154°
2026-04-27 21:11 30.40824 -87.64452 3102 ft 193 kts 156°
2026-04-27 21:12 30.39708 -87.63881 3050 ft 146 kts 153°
2026-04-27 21:12 30.39238 -87.63034 2555 ft 134 kts 89°
2026-04-27 21:12 30.39900 -87.62345 1950 ft 145 kts
2026-04-27 21:12 30.40682 -87.62983 1209 ft 141 kts 264°
2026-04-27 21:13 30.40092 -87.63488 262 ft 125 kts 157°
2026-04-27 21:13 30.39440 -87.63101 57 ft 81 kts 147°
2026-04-27 21:13 30.38906 -87.62755 123 ft 110 kts 152°
2026-04-27 21:13 30.38174 -87.62313 822 ft 116 kts 154°
2026-04-27 21:14 30.37738 -87.61593 912 ft 109 kts 85°
2026-04-27 21:14 30.38405 -87.61354 874 ft 124 kts 342°
2026-04-27 21:14 30.39218 -87.61668 902 ft 128 kts 347°
2026-04-27 21:14 30.40088 -87.61977 941 ft 136 kts 345°
2026-04-27 21:15 30.40863 -87.62537 901 ft 134 kts 286°
2026-04-27 21:15 30.40599 -87.63393 547 ft 110 kts 201°
2026-04-27 21:15 30.39887 -87.63378 105 ft 97 kts 153°
2026-04-27 21:15 30.39412 -87.63081 55 ft 51 kts 150°
2026-04-27 21:16 30.39189 -87.62936 48 ft 34 kts 151°
2026-04-27 21:16 30.39018 -87.62846 52 ft 18 kts 176°
2026-04-27 21:16 30.38983 -87.62894 54 ft 11 kts 272°
2026-04-27 21:16 30.38994 -87.62997 54 ft 11 kts 326°
2026-04-27 21:17 30.39072 -87.63048 50 ft 9 kts 324°
2026-04-27 21:17 30.39098 -87.63147 54 ft 17 kts 269°
2026-04-27 21:17 30.39098 -87.63320 54 ft 25 kts 274°
2026-04-27 21:17 30.39134 -87.63411 52 ft 13 kts 21°
2026-04-27 21:18 30.39233 -87.63345 54 ft 20 kts 31°
2026-04-27 21:18 30.39360 -87.63281 54 ft 19 kts
2026-04-27 21:18 30.39513 -87.63278 54 ft 24 kts 359°
2026-04-27 21:18 30.39551 -87.63277 54 ft 0 kts 359°
2026-04-27 21:20 30.39599 -87.63274 55 ft 12 kts 15°
2026-04-27 21:20 30.39622 -87.63217 55 ft 5 kts 138°
2026-04-27 21:20 30.39612 -87.63209 52 ft 0 kts 152°
2026-04-27 21:20 30.39608 -87.63207 53 ft 11 kts 152°
2026-04-27 21:21 30.39290 -87.63001 53 ft 86 kts 153°
2026-04-27 21:21 30.38616 -87.62584 273 ft 128 kts 155°
2026-04-27 21:21 30.37655 -87.62686 718 ft 170 kts 219°
2026-04-27 21:21 30.37303 -87.64159 1087 ft 209 kts 266°
2026-04-27 21:22 30.37292 -87.65792 2136 ft 202 kts 268°
2026-04-27 21:22 30.37384 -87.67437 3007 ft 204 kts 274°
2026-04-27 21:22 30.37557 -87.69091 3796 ft 213 kts 275°
2026-04-27 21:22 30.37716 -87.70841 4376 ft 227 kts 282°
2026-04-27 21:23 30.38647 -87.72436 4492 ft 265 kts 329°
2026-04-27 21:23 30.40534 -87.72747 4584 ft 281 kts
2026-04-27 21:23 30.42418 -87.72716 4557 ft 264 kts
2026-04-27 21:23 30.44235 -87.72629 4418 ft 257 kts
2026-04-27 21:24 30.45994 -87.72619 4345 ft 248 kts
2026-04-27 21:24 30.47727 -87.72615 4237 ft 260 kts 358°
2026-04-27 21:24 30.49603 -87.72674 3969 ft 272 kts 360°
2026-04-27 21:24 30.51477 -87.72723 3710 ft 269 kts 359°
2026-04-27 21:25 30.53312 -87.72788 3699 ft 258 kts 359°
2026-04-27 21:25 30.55074 -87.72809 3620 ft 251 kts
2026-04-27 21:25 30.56748 -87.72727 3754 ft 242 kts 26°
2026-04-27 21:25 30.57500 -87.71168 3707 ft 232 kts 88°
2026-04-27 21:26 30.57585 -87.69279 3513 ft 235 kts 91°
2026-04-27 21:26 30.57674 -87.67397 3457 ft 229 kts 89°
2026-04-27 21:26 30.57781 -87.65576 3474 ft 231 kts 90°
2026-04-27 21:26 30.57713 -87.63685 3497 ft 234 kts 107°
2026-04-27 21:27 30.57183 -87.61910 3499 ft 233 kts 111°
2026-04-27 21:27 30.56626 -87.60149 3488 ft 232 kts 112°
2026-04-27 21:27 30.56029 -87.58384 3396 ft 238 kts 113°
2026-04-27 21:27 30.55447 -87.56620 3423 ft 235 kts 113°
2026-04-27 21:28 30.54921 -87.54853 3575 ft 233 kts 98°
2026-04-27 21:28 30.55508 -87.53063 3562 ft 245 kts 58°
2026-04-27 21:28 30.56425 -87.51428 3773 ft 237 kts 61°
2026-04-27 21:28 30.57347 -87.49792 3546 ft 251 kts 59°
2026-04-27 21:29 30.58310 -87.48127 3462 ft 252 kts 58°
2026-04-27 21:29 30.59264 -87.46431 3400 ft 251 kts 61°
2026-04-27 21:29 30.60166 -87.44719 3451 ft 246 kts 62°
2026-04-27 21:29 30.61001 -87.42999 3557 ft 243 kts 64°
2026-04-27 21:30 30.61866 -87.41298 3559 ft 247 kts 62°
2026-04-27 21:30 30.62731 -87.39573 3562 ft 247 kts 63°
2026-04-27 21:30 30.63535 -87.37809 3489 ft 249 kts 67°
2026-04-27 21:30 30.64295 -87.35999 3422 ft 250 kts 64°
2026-04-27 21:31 30.65658 -87.34890 3385 ft 255 kts
2026-04-27 21:31 30.67425 -87.34792 3489 ft 252 kts
2026-04-27 21:31 30.69192 -87.34724 3445 ft 255 kts
2026-04-27 21:31 30.70978 -87.34581 3474 ft 259 kts
2026-04-27 21:32 30.72767 -87.34441 3421 ft 258 kts 11°
2026-04-27 21:32 30.74212 -87.33302 2939 ft 256 kts 60°
2026-04-27 21:32 30.75033 -87.31450 2339 ft 259 kts 69°
2026-04-27 21:32 30.75802 -87.29575 1927 ft 253 kts 69°
2026-04-27 21:33 30.76506 -87.27749 1736 ft 239 kts 70°
2026-04-27 21:33 30.77124 -87.26000 1680 ft 229 kts 72°
2026-04-27 21:33 30.77675 -87.24275 1638 ft 225 kts 75°
2026-04-27 21:33 30.78194 -87.22564 1667 ft 223 kts 77°
2026-04-27 21:34 30.78422 -87.20813 1694 ft 217 kts 89°
2026-04-27 21:34 30.78514 -87.19067 1672 ft 215 kts 91°
2026-04-27 21:34 30.78549 -87.17274 1687 ft 229 kts 92°
2026-04-27 21:34 30.78553 -87.15402 1677 ft 234 kts 94°
2026-04-27 21:35 30.78563 -87.13518 1682 ft 237 kts 92°
2026-04-27 21:35 30.78540 -87.11589 1714 ft 240 kts 95°
2026-04-27 21:35 30.78299 -87.09703 1573 ft 232 kts 116°
2026-04-27 21:35 30.77414 -87.08295 1270 ft 203 kts 134°
2026-04-27 21:36 30.76489 -87.07098 1244 ft 197 kts 134°
2026-04-27 21:36 30.75576 -87.05940 1267 ft 191 kts 137°
2026-04-27 21:36 30.74636 -87.04846 1280 ft 192 kts 139°
2026-04-27 21:36 30.73670 -87.03758 1271 ft 195 kts 140°
2026-04-27 21:37 30.72659 -87.02681 1282 ft 199 kts 141°
2026-04-27 21:37 30.71722 -87.01515 1277 ft 210 kts 96°
2026-04-27 21:37 30.72797 -87.00605 1159 ft 200 kts 350°
2026-04-27 21:37 30.73759 -87.01343 1002 ft 144 kts 312°
2026-04-27 21:38 30.74238 -87.02218 792 ft 125 kts 262°
2026-04-27 21:38 30.73819 -87.02935 490 ft 104 kts 201°
2026-04-27 21:38 30.73128 -87.02910 262 ft 102 kts 155°
2026-04-27 21:38 30.72640 -87.02429 192 ft 76 kts 138°
2026-04-27 21:39 30.72361 -87.02130 196 ft 39 kts 138°
2026-04-27 21:39 30.72213 -87.01967 200 ft 22 kts 138°
2026-04-27 21:39 30.72123 -87.01950 192 ft 12 kts 198°
2026-04-27 21:39 30.72063 -87.01973 192 ft 0 kts 218°
2026-04-27 21:41 30.72062 -87.01974 192 ft 2 kts 218°
2026-04-27 21:41 30.72055 -87.01982 192 ft 1 kts 229°
2026-04-27 21:41 30.72060 -87.02027 192 ft 12 kts 285°
2026-04-27 21:41 30.72068 -87.02156 192 ft 19 kts 271°
2026-04-27 21:42 30.72075 -87.02322 192 ft 20 kts 273°
2026-04-27 21:42 30.72029 -87.02434 195 ft 15 kts 215°
2026-04-27 21:42 30.71922 -87.02486 192 ft 18 kts 189°
2026-04-27 21:42 30.71787 -87.02497 192 ft 21 kts 182°
2026-04-27 21:43 30.71639 -87.02502 192 ft 18 kts 180°
2026-04-27 21:43 30.71504 -87.02509 192 ft 21 kts 183°
2026-04-27 21:43 30.71446 -87.02463 192 ft 14 kts 95°
2026-04-27 21:43 30.71516 -87.02415 192 ft 18 kts
2026-04-27 21:44 30.71641 -87.02409 199 ft 7 kts
2026-04-27 21:44 30.71655 -87.02431 192 ft 2 kts 274°
2026-04-27 21:44 30.71655 -87.02433 192 ft 0 kts 275°